Tracking 19193 objects as of 23-Jun-2018
HD Live streaming from Space Station
objects crossing your sky now

FENGYUN 1C DEB

Track FENGYUN 1C DEB now!
10-day predictions


NORAD ID: 36280
Int'l Code: 1999-025DXH
Perigee: 840.0 km
Apogee: 941.4 km
Inclination: 99.0 °
Period: 102.6 minutes
Semi major axis: 7261 km
RCS: 0.0011 m2 (small)
Launch date: May 10, 1999
Source: People's Republic of China (PRC)
Launch site: Taiyaun Space Center, China (TSC)

Note: This is SATELLITE DEBRIS
aabbcc
Your satellite tracking list
Your tracking list is empty




NASA's NSSDC Master Catalog

Two Line Element Set (TLE):
1 36280U 99025DXH 18172.92490918  .00000325  00000-0  23272-3 0  9994
2 36280  99.0137 219.4642 0069788 136.6376 348.5125 14.02959824480855
Source of the keplerian elements: AFSPC